Location: Aalen
(48.8330°N, 10.1000°E)
Time: 06:39:37
(UTC+02:00)

UWE-3 - Pass Details

Date: 06 April 2023
Orbit: 576 x 670 km, 97.7° (Epoch: 29 May)

Event Time Altitude Azimuth Distance (km) Brightness Sun altitude
Rises 05:07:43 0° 6° (N) 2,961 ? -16.2°
Reaches altitude 10° 05:10:05 10° 358° (N) 2,031 ? -15.9°
Maximum altitude 05:14:07 36° 293° (WNW) 995 ? -15.3°
Enters shadow 05:15:47 26° 249° (WSW) 1,229 ? -15.1°
